Forside
METAR-TAF:

METAR-TAF

Lufthavne :

Area_Regional_Airport

South Haven, Michigan, USA

Breddekreds: 42-21-03N, længdekreds: 086-15-22W, højde: 203 m

Aktuelle vejr

Denne rapport blev lavet for 21 minutter siden, kl. 16:35 UTC
Vind 5 kt fra vest
Temperatur 24°C
Fugtighed 54%
Tryk 1020 hPa
Sigt: 16.1 km
skyfri

METAR: KLWA 031635Z AUTO 27005KT 10SM CLR 24/14 A3012 RMK AO2 T02410141

Tid: 12:56 (16:56 UTC)


TAF: fraværende

Vejrobservationer og prognoser fra mere end 4000 lufthavne (METAR og TAF).

De gule og røde prikker repræsenterer de meteorologiske stationer.

Flyt musen over at se navnet på stationen.

Så klik over at se vejr observationer og prognoser.

At skifte det kort: Klik på de grønne knapper med et sort kors for at zoome ind; på den grønne knap med en bindestreg for at zoome ud; eller på de grønne pile for tilstødende kort.


METAR-TAF: